Charlotte, MI

8:15 PM EDT on May 27, 2018 (GMT -0400)
Charlotte

Weather History for KFPK - March, 2013

Change the Weather History Date:

Sunday, March 24, 2013

  Actual Average (KLAN) Record (KLAN)
Temperature  
Mean Temperature 28 °F 38 °F  
Max Temperature 36 °F 48 °F 82 °F (1910)
Min Temperature 20 °F 29 °F -10 °F (1965)
Degree Days  
Heating Degree Days 37 27  
Month to date heating degree days 754  
Since 1 July heating degree days 5689  
Cooling Degree Days 0 0  
Month to date cooling degree days 0  
Year to date cooling degree days 0  
Moisture  
Dew Point 23 °F    
Average Humidity 79    
Maximum Humidity 94    
Minimum Humidity 61    
Precipitation  
Precipitation 0.00 in 0.07 in 1.10 in (1893)
Month to date precipitation 1.51  
Year to date precipitation 4.63  
Snow  
Snow 0.00 in 0.20 in 5.10 in (1947)
Month to date snowfall 6.0  
Since 1 July snowfall 48.2  
Snow Depth -    
Sea Level Pressure  
Sea Level Pressure 29.83 in    
Wind  
Wind Speed 6 mph (NE)    
Max Wind Speed 20 mph    
Max Gust Speed 28 mph    
Visibility 10 miles    
Events      
T = Trace of Precipitation, MM = Missing Value Source: NWS Daily Summary

Daily Weather History Graph

Daily Weather History Graph

Search for Another Location

Airport or City:

Astronomy

Mar. 24, 2013 Rise Set
Actual Time 7:35 AM EDT 7:56 PM EDT
Civil Twilight 7:06 AM EDT 8:24 PM EDT
Nautical Twilight 6:33 AM EDT 8:57 PM EDT
Astronomical Twilight 5:59 AM EDT 9:32 PM EDT
Moon 5:21 PM EDT (3/24) 5:48 AM EDT (3/24)
Length of Visible Light 13h 17m
Length of Day
12h 21m
Waxing Gibbous, 91% of the Moon is Illuminated
Mar 24
Waxing Gibbous
Mar 27
Full
Apr 3
Last Quarter
Apr 10
New
Apr 18
First Quarter

Hourly Weather History & Observations

Time (EDT) Temp. Windchill Dew Point Humidity Pressure Visibility Wind Dir Wind Speed Gust Speed Precip Events Conditions
12:15 AM 23.7 °F - 20.5 °F 87% 30.01 in 10.0 mi Calm Calm - N/A   Clear
12:35 AM 24.4 °F 18.6 °F 21.0 °F 87% 30.00 in 10.0 mi NNE 4.6 mph - N/A   Clear
12:55 AM 24.8 °F - 21.6 °F 87% 30.00 in 10.0 mi Calm Calm - N/A   Clear
1:15 AM 24.1 °F - 21.0 °F 88% 29.99 in 10.0 mi Calm Calm - N/A   Clear
1:35 AM 23.5 °F - 20.7 °F 89% 30.00 in 10.0 mi Calm Calm - N/A   Clear
1:55 AM 24.3 °F - 21.2 °F 88% 30.00 in 10.0 mi Calm Calm - N/A   Clear
2:15 AM 23.7 °F - 21.0 °F 89% 29.99 in 10.0 mi Calm Calm - N/A   Clear
2:35 AM 22.8 °F - 20.8 °F 92% 30.01 in 10.0 mi Calm Calm - N/A   Clear
2:55 AM 22.6 °F - 20.5 °F 91% 30.01 in 10.0 mi Calm Calm - N/A   Clear
3:35 AM 20.8 °F - 19.2 °F 93% 29.99 in 7.0 mi Calm Calm - N/A   Clear
3:55 AM 22.3 °F - 20.1 °F 91% 29.99 in 7.0 mi Calm Calm - N/A   Clear
4:15 AM 21.6 °F - 20.1 °F 94% 29.99 in 10.0 mi Calm Calm - N/A   Clear
4:35 AM 21.9 °F - 20.3 °F 93% 29.98 in 10.0 mi Calm Calm - N/A   Clear
4:55 AM 22.8 °F - 21.4 °F 94% 29.98 in 10.0 mi Calm Calm - N/A   Clear
5:15 AM 24.4 °F 16.5 °F 22.3 °F 91% 29.96 in 10.0 mi NNE 6.9 mph - N/A   Clear
5:35 AM 25.3 °F - 22.6 °F 89% 29.97 in 10.0 mi Calm Calm - N/A   Clear
5:55 AM 25.2 °F - 22.1 °F 88% 29.97 in 10.0 mi Calm Calm - N/A   Clear
6:15 AM 24.8 °F - 22.5 °F 91% 29.97 in 10.0 mi Calm Calm - N/A   Clear
6:35 AM 25.3 °F - 22.6 °F 89% 29.97 in 10.0 mi Calm Calm - N/A   Clear
6:55 AM 25.2 °F - 22.8 °F 91% 29.97 in 10.0 mi Calm Calm - N/A   Clear
7:15 AM 25.2 °F - 23.0 °F 91% 29.96 in 10.0 mi Calm Calm - N/A   Clear
7:35 AM 25.3 °F 18.5 °F 23.0 °F 91% 29.95 in 10.0 mi NNE 5.8 mph - N/A   Clear
7:55 AM 26.1 °F 19.4 °F 23.4 °F 90% 29.94 in 10.0 mi NE 5.8 mph - N/A   Clear
8:15 AM 26.6 °F 21.2 °F 23.5 °F 88% 29.94 in 10.0 mi ENE 4.6 mph - N/A   Clear
8:35 AM 27.1 °F 18.9 °F 23.9 °F 88% 29.93 in 10.0 mi ENE 8.1 mph - N/A   Clear
8:55 AM 27.5 °F 20.2 °F 23.9 °F 86% 29.93 in 10.0 mi NE 6.9 mph - N/A   Scattered Clouds
9:15 AM 27.9 °F 19.8 °F 24.1 °F 86% 29.92 in 10.0 mi NE 8.1 mph - N/A   Scattered Clouds
9:35 AM 28.4 °F 19.7 °F 24.4 °F 85% 29.92 in 10.0 mi NE 9.2 mph - N/A   Overcast
9:55 AM 28.9 °F 21.1 °F 24.8 °F 84% 29.92 in 10.0 mi NE 8.1 mph - N/A   Overcast
10:15 AM 29.7 °F 19.6 °F 25.0 °F 83% 29.90 in 10.0 mi NE 12.7 mph - N/A   Overcast
10:35 AM 30.0 °F 21.7 °F 24.8 °F 81% 29.90 in 10.0 mi NE 9.2 mph 17.3 mph N/A   Overcast
10:55 AM 30.2 °F 20.2 °F 25.0 °F 81% 29.90 in 10.0 mi NE 12.7 mph 19.6 mph N/A   Overcast
11:15 AM 31.1 °F 21.4 °F 25.7 °F 80% 29.89 in 10.0 mi NE 12.7 mph - N/A   Overcast
11:35 AM 31.1 °F 21.4 °F 26.2 °F 82% 29.88 in 10.0 mi NE 12.7 mph 19.6 mph N/A   Overcast
11:55 AM 31.3 °F 20.7 °F 26.2 °F 82% 29.86 in 10.0 mi NE 15.0 mph 23.0 mph N/A   Overcast
12:15 PM 31.8 °F 23.3 °F 25.9 °F 79% 29.85 in 10.0 mi ENE 10.4 mph 17.3 mph N/A   Overcast
12:35 PM 32.0 °F 22.1 °F 25.3 °F 76% 29.84 in 10.0 mi ENE 13.8 mph - N/A   Overcast
12:55 PM 32.5 °F 22.3 °F 25.3 °F 75% 29.82 in 10.0 mi ENE 15.0 mph 19.6 mph N/A   Overcast
1:15 PM 33.3 °F 23.2 °F 25.2 °F 72% 29.81 in 10.0 mi ENE 15.0 mph 20.7 mph N/A   Overcast
1:35 PM 33.6 °F 24.1 °F 25.2 °F 71% 29.81 in 10.0 mi ENE 13.8 mph - N/A   Overcast
1:55 PM 34.7 °F 25.1 °F 24.4 °F 66% 29.80 in 10.0 mi NE 15.0 mph 21.9 mph N/A   Overcast
2:15 PM 34.9 °F 27.1 °F 24.4 °F 66% 29.80 in 10.0 mi ENE 10.4 mph 20.7 mph N/A   Mostly Cloudy
2:35 PM 35.8 °F 26.9 °F 24.6 °F 64% 29.78 in 10.0 mi NE 13.8 mph 21.9 mph N/A   Mostly Cloudy
2:55 PM 36.1 °F 26.2 °F 24.6 °F 63% 29.77 in 10.0 mi NE 17.3 mph 23.0 mph N/A   Mostly Cloudy
3:15 PM 36.9 °F 27.8 °F 25.0 °F 62% 29.76 in 10.0 mi NE 15.0 mph 23.0 mph N/A   Overcast
3:35 PM 36.5 °F 27.4 °F 25.5 °F 64% 29.75 in 10.0 mi ENE 15.0 mph 24.2 mph N/A   Overcast
3:55 PM 35.1 °F 25.5 °F 25.3 °F 68% 29.74 in 10.0 mi NE 15.0 mph 20.7 mph N/A   Overcast
4:15 PM 34.9 °F 26.2 °F 25.5 °F 69% 29.73 in 10.0 mi NE 12.7 mph 20.7 mph N/A   Overcast
4:35 PM 34.7 °F 25.5 °F 25.7 °F 70% 29.72 in 10.0 mi ENE 13.8 mph - N/A   Overcast
4:55 PM 34.2 °F 24.0 °F 26.1 °F 72% 29.71 in 10.0 mi NE 16.1 mph 25.3 mph N/A   Overcast
5:15 PM 34.7 °F 24.7 °F 24.8 °F 67% 29.69 in 10.0 mi ENE 16.1 mph 23.0 mph N/A   Overcast
5:35 PM 34.7 °F 25.9 °F 24.8 °F 67% 29.67 in 10.0 mi NE 12.7 mph 16.1 mph N/A   Overcast
5:55 PM 34.9 °F 24.6 °F 22.8 °F 61% 29.66 in 10.0 mi NE 17.3 mph 25.3 mph N/A   Overcast
6:15 PM 34.7 °F 23.7 °F 22.6 °F 61% 29.67 in 10.0 mi ENE 19.6 mph 24.2 mph N/A   Overcast
6:35 PM 33.8 °F 23.9 °F 23.9 °F 67% 29.66 in 10.0 mi NNE 15.0 mph 23.0 mph N/A   Overcast
6:55 PM 32.5 °F 22.7 °F 24.3 °F 72% 29.66 in 10.0 mi NE 13.8 mph - N/A   Overcast
7:15 PM 32.0 °F 20.1 °F 23.7 °F 71% 29.66 in 10.0 mi NE 19.6 mph 27.6 mph N/A   Overcast
7:35 PM 32.0 °F 22.1 °F 23.4 °F 70% 29.65 in 10.0 mi NE 13.8 mph 26.5 mph N/A   Overcast
7:55 PM 31.8 °F 20.6 °F 23.2 °F 70% 29.66 in 10.0 mi NE 17.3 mph 25.3 mph N/A   Overcast
8:15 PM 31.6 °F 22.1 °F 23.9 °F 73% 29.66 in 10.0 mi NE 12.7 mph 23.0 mph N/A   Overcast
8:35 PM 31.6 °F 22.1 °F 23.7 °F 73% 29.68 in 10.0 mi ENE 12.7 mph 17.3 mph N/A   Overcast
8:55 PM 31.5 °F 21.4 °F 22.1 °F 68% 29.66 in 10.0 mi NE 13.8 mph 23.0 mph N/A   Overcast
9:15 PM 31.1 °F 19.7 °F 21.6 °F 68% 29.66 in 10.0 mi NE 17.3 mph 23.0 mph N/A   Overcast
9:35 PM 30.9 °F 19.8 °F 21.4 °F 68% 29.66 in 10.0 mi NE 16.1 mph 21.9 mph N/A   Overcast
9:55 PM 30.7 °F 18.8 °F 21.2 °F 68% 29.66 in 10.0 mi NE 18.4 mph 25.3 mph N/A   Overcast
10:15 PM 30.6 °F 19.0 °F 21.2 °F 68% 29.66 in 10.0 mi NE 17.3 mph 25.3 mph N/A   Overcast
10:35 PM 30.2 °F 18.9 °F 21.9 °F 71% 29.66 in 10.0 mi NNE 16.1 mph 21.9 mph N/A   Overcast
10:55 PM 30.2 °F 18.9 °F 22.3 °F 72% 29.66 in 10.0 mi NE 16.1 mph 23.0 mph N/A   Overcast
11:15 PM 30.0 °F 20.0 °F 22.8 °F 75% 29.65 in 10.0 mi NE 12.7 mph 18.4 mph N/A   Overcast
11:35 PM 29.8 °F 19.8 °F 23.5 °F 77% 29.65 in 10.0 mi NNE 12.7 mph 17.3 mph N/A   Overcast
11:55 PM 29.7 °F 20.1 °F 23.5 °F 78% 29.66 in 10.0 mi NNE 11.5 mph 18.4 mph N/A   Overcast